Location: Dulzura
(32.6442°N, 116.7814°W)
Time: 17:44:06
(UTC+00:00)

BEESAT 2 - Visible Passes

Search period start: 28 March 2023 00:00
Search period end: 07 April 2023 00:00
Orbit: 446 x 481 km, 64.9° (Epoch: 27 March)

Date Brightness Start Highest point End Pass type
(mag) Time Alt. Az. Time Alt. Az. Time Alt. Az.
28 Mar ? 13:07:16 10° S 13:10:33 33° ESE 13:13:52 10° NE visible
29 Mar ? 12:35:32 10° SSE 12:38:19 21° ESE 12:41:09 10° ENE visible
30 Mar ? 12:04:11 10° SE 12:06:03 14° ESE 12:07:56 10° ENE visible
31 Mar ? 13:06:15 10° SW 13:09:44 46° WNW 13:13:17 10° NNE visible
01 Apr ? 12:34:16 15° SSW 12:37:11 78° WNW 12:40:51 10° NNE visible
02 Apr ? 12:03:21 36° S 12:04:36 62° ESE 12:08:13 10° NE visible
03 Apr ? 11:32:12 36° ESE 11:32:12 36° ESE 11:35:22 10° NE visible
03 Apr ? 13:06:57 10° W 13:08:37 13° NW 13:10:17 10° NNW visible
04 Apr ? 11:00:52 18° ENE 11:00:52 18° ENE 11:02:15 10° ENE visible
04 Apr ? 12:34:46 17° WNW 12:35:44 19° NW 12:38:22 10° N visible
05 Apr ? 12:03:14 27° NW 12:03:14 27° NW 12:06:00 10° N visible
06 Apr ? 11:31:33 25° N 11:31:33 25° N 11:33:23 10° NNE visible
